Regional Weather Roundup
Issued by NWS Green Bay, WI

Home | Current Version | Previous Version | Graphics & Text | Print | Product List | Glossary Off
Versions: 1 2 3 4 5 6 7 8 9 10 11 12 13 14 15 16 17 18 19 20 21 22 23 24 25 26 27 28 29 30 31 32 33 34 35 36 37 38 39 40 41 42 43 44 45 46 47 48 49 50

000
ASUS43 KGRB 242210
RWRGRB

NORTH-CENTRAL AND NORTHEAST WISCONSIN REGIONAL WEATHER ROUNDUP
NATIONAL WEATHER SERVICE GREEN BAY WI
500 PM CDT THU APR 24 2014

WIZ005-009-010>012-018-019-242300-
NORTH CENTRAL WISCONSIN

CITY           SKY/WX    TMP DP  RH WIND       PRES   REMARKS
IRONWOOD       NOT AVBL
MANITOWISH WTR RAIN      34  34 100 E12G20    29.77F
ARBOR VITAE    LGT SNOW  37  34  92 SE10G17   29.77F
EAGLE RIVER    MIX PCPN  34  33  99 SE13G18   29.80F
LAND O LAKES   LGT SNOW  34  33  98 E9        29.82F
RHINELANDER    LGT RAIN  36  34  92 SE16      29.78F FOG
PHILLIPS       RAIN      36  35  94 SE10G22   29.72F
ANTIGO         LGT RAIN  37  36  93 SE18G30   29.78F
TOMAHAWK       LGT RAIN  37  35  92 SE9G16    29.76F
MERRILL        LGT RAIN  39  37  93 SE14G20   29.75F
$$

WIZ013-073-242300-
NORTHEAST WISCONSIN

CITY           SKY/WX    TMP DP  RH WIND       PRES   REMARKS
IRON MOUNTAIN  SNOW      33  32  96 E7        29.89S VSB 1/2
MARINETTE      CLOUDY    37  36  93 E13       29.89F
OCONTO         CLOUDY    39  36  88 E9G16     29.86F
$$

WIZ017-030-035>037-045-242300-
CENTRAL WISCONSIN

CITY           SKY/WX    TMP DP  RH WIND       PRES   REMARKS
MEDFORD        LGT RAIN  39  38  97 SE16G26   29.71F
WAUSAU         LGT RAIN  40  40 100 SE20G28   29.73F FOG
MOSINEE        LGT RAIN  39  39 100 E14G24    29.74F
MARSHFIELD     LGT RAIN  42  39  89 SE16      29.70S FOG
WISC RAPIDS    LGT RAIN  43  40  89 E13G21    29.72F FOG
STEVENS POINT  LGT RAIN  40  37  89 E20G28    29.74F
WAUPACA        LGT RAIN  45  39  81 E18G28    29.76F
SHAWANO        LGT RAIN  42  38  86 E15       29.83F
CLINTONVILLE   RAIN      41  39  93 E12G20    29.81F
$$

WIZ038-039-048-051-242300-
FOX VALLEY

CITY           SKY/WX    TMP DP  RH WIND       PRES   REMARKS
NWS GREEN BAY  LGT RAIN  42  38  85 E12       29.83F FOG
APPLETON       LGT RAIN  41  39  93 E16       29.81F FOG
OSHKOSH        LGT RAIN  44  37  76 E15       29.77F
FOND DU LAC    LGT RAIN  46  35  65 SE20G25   29.76F
$$

WIZ022-050-052-242300-
EAST CENTRAL WISCONSIN

CITY           SKY/WX    TMP DP  RH WIND       PRES   REMARKS
STURGEON BAY   CLOUDY    39  34  81 E12G22    29.87F
MANITOWOC      LGT RAIN  42  37  82 E15       29.85F
SHEBOYGAN      LGT RAIN  45  33  63 E10       29.83F
$$

LMZ563-521-522-541>543-242300-
LAKESHORE

STATION/POSITION TIME  TEMP    WIND        PRES    VSBY  WAVE
                       AIR SEA DIR/SP/G                  HT/PER
                 (UTC) (F)     (DEG/KT/KT) (MB)    (MI)  (FT/S)
SHEBOYGAN LKSHOR 2200   43     100/ 16/ 17 1010.7F
KEWAUNEE LKSHORE 2200   39      80/ 15/ 19 1011.9F
TWO RIVERS CG    2100   40                   N/A       6   2
NORTHPORT PIER   2200   36      90/ 10/ 25 1013.5F
SISTER BAY LKSHO 2200   38     110/  9/ 13   N/A
STURGEON BAY CG  2100   38      40/ 11     1012.4   1 1/4  2
MENOMINEE LKSHOR 2200   36      50/  9/ 14 1013.3R
$$



USA.gov is the U.S. government's official web portal to all federal, state and local government web resources and services.